Zurück zum Katalog

ARIANE 5 R/B

AktivHEO
NORAD 25990·ROCKET BODY·🇫🇷 France

Gestartet Dec 10, 1999 von Guiana Space Centre

Loading…

Nächste Überflüge (nächste 24 Stunden)

TLE

AktuellSource: Space-Track

Epoche: Sep 13, 2026, 19:50 UTC

1 25990U 99066B   26256.82702195 -.00000081  00000-0  00000-0 0  9990
2 25990  71.5036 302.9419 5895134 111.7174   0.3007  0.55304702 25849

Verfolge ARIANE 5 R/B in Echtzeit mit AllMySat

Download on the App Store